User: anonymous   Login
Location: Helsinki
(60.1699°N, 24.9384°E)
Time: 03:22:14
(UTC+02:00)
Language:

deb Explorer IX - Orbit

View from above orbital plane
View from above orbital plane
View from above satellite
View from above satellite

Ground track
Ground track

The orbit data is extracted from the following two-line orbital elements,

1    85U 61004C   20300.45177229 +.00000563 +00000-0 +13400-3 0  9991
2    85 038.7721 072.4918 0395530 293.7926 062.1827 14.21120570949738
Epoch (UTC): 26 October 2020 10:50:33
Eccentricity: 0.0395530
inclination: 38.7721°
perigee height: 537 km
apogee height: 1106 km
right ascension of ascending node: 72.4918°
argument of perigee: 293.7926°
revolutions per day: 14.21120570
mean anomaly at epoch: 62.1827°
orbit number at epoch: 94973

The dashed part of the orbit path shows where the satellite is in the earth's shadow,  

DLR